Arlington, WA
on Saturday, November 24, 2012

Saturday
Previous Day Next Day
Daily Summary
 ActualAverageRecord
Temperature
Mean Temperature °F °F  
Max Temperature 50°F 45°F 55°F (2004)
Min Temperature 30°F 31°F 24°F (2013)
Degree Days
Heating Degree Days 24    
Moisture
Dew Point 37°F   
Average Humidity 89    
Maximum Humidity 100    
Minimum Humidity 71    
Precipitation
Precipitation 0.00 in in in ()
Wind
Wind Speed 0 mph   
Max Wind Speed 6 mph   
Max Gust Speed mph   
Visibility 4 miles   
Events     
Averages and records for this station are not official NWS values.
Key: T is trace of precipitation, MM is missing value
Source: NWS Daily Summary
Seasonal Weather Averages
Time(PST)TemperatureDew PointHumidity Pressure Visibility Wind DirectionWind SpeedGust SpeedPrecipitationEvents Conditions
12:15 AM 46.4°F 44.6°F 93% 30.15 in 10.0 miles Calm Calm - N/A   Overcast
12:35 AM 46.4°F 44.6°F 93% 30.15 in 8.0 miles Calm Calm - N/A   Overcast
12:55 AM 46.4°F 44.6°F 93% 30.16 in 7.0 miles Calm Calm - N/A   Overcast
1:15 AM 46.4°F 44.6°F 93% 30.17 in 5.0 miles Calm Calm - N/A   Overcast
1:55 AM 44.6°F 42.8°F 93% 30.18 in 5.0 miles Calm Calm - N/A   Overcast
2:15 AM 44.6°F 42.8°F 93% 30.19 in 10.0 miles Calm Calm - N/A   Overcast
2:35 AM 44.6°F 42.8°F 93% 30.19 in 9.0 miles Calm Calm - N/A   Overcast
2:55 AM 44.6°F 42.8°F 93% 30.20 in 10.0 miles Calm Calm - N/A   Overcast
3:15 AM 44.6°F 42.8°F 93% 30.21 in 9.0 miles Calm Calm - N/A   Overcast
3:35 AM 44.6°F 42.8°F 93% 30.21 in 7.0 miles Calm Calm - N/A   Overcast
3:55 AM 42.8°F 41.0°F 93% 30.21 in 0.8 miles Calm Calm - N/A   Overcast
4:15 AM 39.2°F 37.4°F 93% 30.21 in 0.5 miles Calm Calm - N/A   Mostly Cloudy
4:35 AM 37.4°F 35.6°F 93% 30.21 in 0.2 miles Calm Calm - N/A   Overcast
4:55 AM 37.4°F 35.6°F 93% 30.22 in 0.2 miles Calm Calm - N/A   Overcast
5:15 AM 37.4°F 35.6°F 93% 30.23 in 0.2 miles Calm Calm - N/A   Overcast
5:35 AM 39.2°F 37.4°F 93% 30.23 in 0.2 miles Calm Calm - N/A   Overcast
5:55 AM 39.2°F 37.4°F 93% 30.24 in 0.2 miles Calm Calm - N/A   Overcast
6:15 AM 39.2°F 37.4°F 93% 30.24 in 0.2 miles Calm Calm - N/A   Overcast
6:35 AM 37.4°F 35.6°F 93% 30.24 in 0.2 miles Calm Calm - N/A   Overcast
6:55 AM 37.4°F 35.6°F 93% 30.24 in 0.2 miles Calm Calm - N/A   Overcast
7:15 AM 35.6°F 33.8°F 93% 30.25 in 0.2 miles Calm Calm - N/A   Overcast
7:35 AM 35.6°F 35.6°F 100% 30.26 in 0.2 miles Calm Calm - N/A   Overcast
7:55 AM 37.4°F 35.6°F 93% 30.25 in 0.2 miles Calm Calm - N/A   Overcast
8:15 AM 35.6°F 33.8°F 93% 30.25 in 0.2 miles Calm Calm - N/A   Overcast
8:35 AM 37.4°F 35.6°F 93% 30.26 in 0.2 miles Calm Calm - N/A   Overcast
8:55 AM 39.2°F 37.4°F 93% 30.27 in 0.5 miles Calm Calm - N/A   Overcast
9:15 AM 39.2°F 37.4°F 93% 30.27 in 0.2 miles Calm Calm - N/A   Overcast
9:35 AM 41.0°F 39.2°F 93% 30.27 in 0.2 miles Calm Calm - N/A   Overcast
9:55 AM 41.0°F 39.2°F 93% 30.27 in 1.0 miles Calm Calm - N/A   Overcast
10:15 AM 42.8°F 41.0°F 93% 30.27 in 9.0 miles Calm Calm - N/A   Mostly Cloudy
10:35 AM 44.6°F 39.2°F 81% 30.27 in 10.0 miles Calm Calm - N/A   Overcast
10:55 AM 44.6°F 39.2°F 81% 30.27 in 10.0 miles Calm Calm - N/A   Mostly Cloudy
11:15 AM 42.8°F 41.0°F 93% 30.28 in 10.0 miles Calm Calm - N/A   Clear
11:35 AM 44.6°F 41.0°F 87% 30.27 in 10.0 miles Calm Calm - N/A   Scattered Clouds
11:55 AM 46.4°F 41.0°F 81% 30.27 in 10.0 miles Calm Calm - N/A   Partly Cloudy
12:15 PM 46.4°F 42.8°F 87% 30.27 in 10.0 miles Calm Calm - N/A   Scattered Clouds
12:35 PM 46.4°F 42.8°F 87% 30.26 in 10.0 miles Calm Calm - N/A   Clear
12:55 PM 48.2°F 42.8°F 82% 30.26 in 10.0 miles Calm Calm - N/A   Clear
1:15 PM 48.2°F 42.8°F 82% 30.26 in 10.0 miles Calm Calm - N/A   Clear
1:35 PM 48.2°F 41.0°F 76% 30.26 in 10.0 miles Calm Calm - N/A   Scattered Clouds
1:55 PM 50.0°F 41.0°F 71% 30.25 in 10.0 miles Calm Calm - N/A   Mostly Cloudy
2:15 PM 48.2°F 39.2°F 71% 30.26 in 10.0 miles North 5.8 mph - N/A   Scattered Clouds
2:35 PM 46.4°F 37.4°F 71% 30.26 in 10.0 miles NE 4.6 mph - N/A   Partly Cloudy
2:55 PM 44.6°F 37.4°F 76% 30.26 in 10.0 miles Calm Calm - N/A   Mostly Cloudy
3:15 PM 44.6°F 37.4°F 76% 30.25 in 10.0 miles Calm Calm - N/A   Mostly Cloudy
3:35 PM 44.6°F 39.2°F 81% 30.25 in 10.0 miles Calm Calm - N/A   Mostly Cloudy
3:55 PM 42.8°F 37.4°F 81% 30.25 in 10.0 miles Calm Calm - N/A   Partly Cloudy
4:15 PM 42.8°F 37.4°F 81% 30.25 in 10.0 miles Calm Calm - N/A   Clear
4:35 PM 41.0°F 37.4°F 87% 30.25 in 10.0 miles Calm Calm - N/A   Clear
4:55 PM 39.2°F 37.4°F 93% 30.25 in 4.0 miles Calm Calm - N/A   Clear
5:15 PM 39.2°F 37.4°F 93% 30.25 in 0.8 miles Calm Calm - N/A   Unknown
5:35 PM 37.4°F 35.6°F 93% 30.25 in 1.2 miles Calm Calm - N/A   Clear
5:55 PM 35.6°F 33.8°F 93% 30.25 in 0.5 miles Calm Calm - N/A   Mostly Cloudy
6:15 PM 37.4°F 35.6°F 93% 30.25 in 1.2 miles Calm Calm - N/A   Overcast
6:35 PM 35.6°F 35.6°F 100% 30.25 in 0.5 miles Calm Calm - N/A   Overcast
6:55 PM 33.8°F 30.2°F 87% 30.25 in 0.5 miles Calm Calm - N/A   Mostly Cloudy
7:15 PM 33.8°F 32.0°F 93% 30.25 in 0.5 miles Calm Calm - N/A   Mostly Cloudy
7:35 PM 33.8°F 30.2°F 87% 30.25 in 0.2 miles Calm Calm - N/A   Overcast
7:55 PM 33.8°F 30.2°F 87% 30.25 in 0.2 miles North 4.6 mph - N/A   Overcast
8:15 PM 32.0°F 30.2°F 93% 30.25 in 0.5 miles Calm Calm - N/A   Mostly Cloudy
8:35 PM 33.8°F 30.2°F 87% 30.26 in 0.8 miles Calm Calm - N/A   Overcast
8:55 PM 33.8°F 32.0°F 93% 30.27 in 0.2 miles Calm Calm - N/A   Overcast
9:15 PM 33.8°F 30.2°F 87% 30.27 in 0.2 miles Calm Calm - N/A   Overcast
9:35 PM 35.6°F 33.8°F 93% 30.27 in 0.8 miles Calm Calm - N/A   Overcast
9:55 PM 33.8°F 32.0°F 93% 30.28 in 1.0 miles Calm Calm - N/A   Overcast
10:15 PM 33.8°F 32.0°F 93% 30.28 in 0.5 miles Calm Calm - N/A   Overcast
10:35 PM 33.8°F 32.0°F 93% 30.28 in 0.2 miles Calm Calm - N/A   Overcast
10:55 PM 33.8°F 30.2°F 87% 30.28 in 0.2 miles Calm Calm - N/A   Overcast
11:15 PM 32.0°F 30.2°F 93% 30.29 in 0.2 miles Calm Calm - N/A   Overcast
11:35 PM 32.0°F 30.2°F 93% 30.29 in 0.2 miles Calm Calm - N/A   Overcast
11:55 PM 30.2°F 28.4°F 93% 30.29 in 0.2 miles Calm Calm - N/A   Overcast
Moon Phase
Nov. 24 Nov. 28 Dec. 06 Dec. 13 Dec. 20
Sunrise:07:29 AM (PST) Moon Rise:02:20 PM (PST)11/24
Sunset:04:21 PM (PST) Moon Set:03:38 AM (PST)11/24

Copyright © 2014 The Weather Underground, Inc.